Tracking 19644 objects as of 26-Apr-2019
HD Live streaming from Space Station
objects crossing your sky now

METEOR 2-5 DEB

Track METEOR 2-5 DEB now!
10-day predictions


NORAD ID: 38271
Int'l Code: 1979-095BR
Perigee: 842.8 km
Apogee: 844.0 km
Inclination: 81.2 °
Period: 101.6 minutes
Semi major axis: 7214 km
RCS: 0.0002 m2 (small)
Launch date: October 31, 1979
Source: Commonwealth of Independent States (former USSR) (CIS)
Launch site: PLESETSK MISSILE AND SPACE COMPLEX (PKMTR)

Note: This is SATELLITE DEBRIS
aabbcc
Your satellite tracking list
Your tracking list is empty




NASA's NSSDC Master Catalog

Two Line Element Set (TLE):
1 38271U 79095BR  19103.64611196  .00000757  00000-0  37220-3 0  9995
2 38271  81.2042 233.0284 0000894 258.1470 101.9604 14.16779871402547
Source of the keplerian elements: AFSPC